一网星座-0295星 (ONEWEB-0295 )

导读 | 豆包AI

ONEWEB-0295是英国OneWeb公司的低轨宽带通信卫星,于2021年8月21日发射入轨,是OneWeb全球卫星互联网星座的组成部分。OneWeb星座旨在为全球偏远及互联网基础设施薄弱地区,提供稳定可靠的宽带接入服务,该卫星运行在近地轨道,依托Ku波段频谱传输信号,支撑星座全球覆盖的组网目标,助力缩小全球数字鸿沟。

Basic Information
目录编号:
49084
目录名称:
ONEWEB-0295
国际标识:
2021-075K
轨道中心:
EARTH
卫星名称:
一网星座-0295星
卫星全名:
一网星座-0295星 (ONEWEB-0295 )
卫星状态:
在轨 (已飞行1666 天)
发射日期:
2021-08-21 UTC
国别 :
英国 (GB)
星等 :
--
Orbit Information
数据来源 国际轨道数据 AOE轨道数据
星历时间 2026-03-14T05:18:32+0800
12小时前
查看轨道信息
2026-03-11T17:00:00+0800
3天前
查看轨道信息
半长轴 7571.847km 7571.848km
偏心率 0.0001924 0.0001989
轨道倾角 87.916° 87.916°
近地点辐角 69.616° 69.760°
升交点赤经 24.794° 25.294°
平近点角 290.517° 257.305°
近地点 1192.253km 1192.204km
远地点 1195.167km 1195.218km
周期 109.285分钟 109.285分钟
每日圈数 13.176501 13.176498
Detailed Information
平衡模式:
三轴稳定
覆盖范围:
全球
运营商:
一网卫星公司
运营商所在国:
英国
制造商(研发单位):
一网卫星公司
制造商所在国:
英国
使用方式:
暂无
Satellite Introduction
OneWeb卫星网络由648颗重约125公斤的微型卫星组成,运行在1200公里的轨道上。 每颗卫星都能够提供至少每秒8千兆位的吞吐量,以使用其高吞吐量的Ku频段有效载荷为家庭和移动平台提供互联网接入。该卫星仍在工作。
2D Orbit Map
3D Orbit Map
Orbit Altitude Analysis Chart
Orbit Inclination Analysis Chart
Orbit Comprehensive Analysis Chart
View Comprehensive Chart